This demonstration page uses our WeatherBlox Daily Observations layout. Learn more.

36.17497, -115.13722

Hourly Observations for January 17, 2018

Temp ( °F °C ) Dew Point ( °F °C ) Humidity (%) Winds ( mph kmh ) Pressure ( in mb ) Visibility ( mi km ) Precip ( " mm )
12:53 am 00:53 Clear 50 10 35 1.7 57 57 NW 8 13 30.27 1025 10 16.0934 0 0
1:53 am 01:53 Clear 51 10.6 34 1.1 52 52 NNW 7 11 30.27 1025 10 16.0934 0 0
2:53 am 02:53 Clear 50 10 35 1.7 57 57 Calm 30.27 1025 10 16.0934 0 0
3:53 am 03:53 Clear 48 8.9 34 1.1 58 58 NW 3 6 30.28 1025 10 16.0934 0 0
4:53 am 04:53 Clear 45 7.2 35 1.7 68 68 WNW 6 9 30.29 1026 10 16.0934 0 0
5:53 am 05:53 Clear 43 6.1 36 2.2 76 76 VRB 5 7 30.3 1026 10 16.0934 0 0
6:53 am 06:53 Sunny 45 7.2 35 1.7 68 68 Calm 30.32 1027 10 16.0934 0 0
7:53 am 07:53 Sunny 47 8.3 35 1.7 63 63 Calm 30.35 1028 10 16.0934 0 0
8:53 am 08:53 Sunny 50 10 37 2.8 61 61 Calm 30.37 1028 10 16.0934 0 0
9:53 am 09:53 Sunny 55 12.8 34 1.1 45 45 Calm 30.37 1029 10 16.0934 0 0
10:53 am 10:53 Sunny 60 15.6 34 1.1 38 38 Calm 30.35 1028 10 16.0934 0 0
11:53 am 11:53 Sunny 62 16.7 34 1.1 35 35 Calm 30.3 1026 10 16.0934 0 0
12:53 pm 12:53 Sunny 64 17.8 31 -0.6 29 29 E 3 6 30.27 1025 10 16.0934 0 0
1:53 pm 13:53 Sunny 64 17.8 33 0.6 32 32 E 5 7 30.25 1024 10 16.0934 0 0
2:53 pm 14:53 Sunny 65 18.3 32 0 29 29 ESE 3 6 30.26 1025 10 16.0934 0 0
3:53 pm 15:53 Sunny 66 18.9 33 0.6 29 29 ENE 3 6 30.27 1025 10 16.0934 0 0
4:53 pm 16:53 Clear 64 17.8 32 0 30 30 Calm 30.27 1025 10 16.0934 0 0
5:53 pm 17:53 Clear 61 16.1 35 1.7 38 38 SW 3 6 30.28 1026 10 16.0934 0 0
6:53 pm 18:53 Clear 59 15 35 1.7 41 41 Calm 30.29 1026 10 16.0934 0 0
7:53 pm 19:53 Clear 55 12.8 39 3.9 55 55 NNW 5 7 30.29 1026 10 16.0934 0 0
8:53 pm 20:53 Clear 53 11.7 39 3.9 59 59 NNW 3 6 30.28 1026 10 16.0934 0 0
9:53 pm 21:53 Clear 53 11.7 37 2.8 55 55 N 6 9 30.27 1025 10 16.0934 0 0
10:53 pm 22:53 Clear 50 10 39 3.9 66 66 Calm 30.27 1025 10 16.0934 0 0
11:53 pm 23:53 Clear 49 9.4 39 3.9 69 69 Calm 30.26 1025 10 16.0934 0 0

Powered by AerisWeather